GEOSCAN-EDELVEIS (RS20S)

Last updated on Tue Feb 20 2024 00:02:57 GMT+0000 (Coordinated Universal Time)

1 53385U 22096R 24047.75804922 .04231597 24418-5 18054-2 0 9992 2 53385 97.3671 329.0763 0007907 144.5088 215.6729 16.22768712 85830

Satellite not in orbit